SL-16 DEB, 22344

Orbit data source: Space-Track

SL-16 DEB, 22344 is space debris in LEO originally from a launch on Fri, 25 Dec 1992 UTC launched from the Tyuratam Missile And Space Complex (TTMTR). Debris objects in space refer to the collection of defunct objects orbiting the Earth. Examples of debris include non-operational satellites, rocket bodies, and fragments generated from explosions, collisions, or faulty payload assembly.

Loading next visibility...
Identifier
22344, 1992-093AH
Orbit
LEO
Country
Flag of CISCIS
Related business
Manufacturer
Unknown
Mission
Spacecraft
Bus & Motor
Unknown
Mass
Unknown
Launch date (UTC)
1992-12-25 (33 years ago)
Launch vehicle
Unknown
Launch site
Tyuratam Missile And Space Complex (TTMTR)
Object type
Payload
Rocket body
Debris
Shape & HBR
Unknown shape, 0.1 m
Radar Cross Section
Small (<0.1 m²)

Expand to show TLE details & history
Last TLE update: 1 day ago

TLE from 1 day ago
0 SL-16 DEB
1 22344U 92093AH  25296.44533656  .00002280  00000-0  12116-2 0  9993
2 22344  71.0916 295.9259 0098427 177.6802 182.4798 14.12070363675827
Epoch: 2025-10-23T10:41Z
TLE epoch observation values (Epoch: 2025-10-23T10:41:17.078Z)
Latitude
-0°
Longitude
103.50025°
Altitude
925.811 km
Speed
7.353 km/s
True Right ascension
19h 43m 42s
True Declination
0° 00' 00"
Sunlit
Object was in daylight at epoch
Visualization orbit readout
Latitude
Unknown
Longitude
Unknown
Altitude
Unknown
Speed
Unknown
Apparent Right ascension
Unknown
Apparent Declination
Unknown
Sunlit
N/A
Visualization observer readout
Local Sidereal Time
12:58:35
Azimuth
Unknown
Elevation
Unknown
Doppler factor
Unknown
Orbital elements
Apogee altitude
921.361 km
Perigee altitude
779.068 km
Semi-major axis
7,228.351 km
Eccentricity
0.00984
Inclination
71.0916°
RAAN
295.9259°
Arg. of periapsis
177.6802°
True anomaly
182.43159°
Mean anomaly
182.4798°
Eccentric anomaly
182.45564°
Mean motion
3.5317 °/min
Orbital period
101.93 mins
BSTAR
0.0012116
Loading maneuver chart data...
Computing Atmospheric mass density...

Documentation

Showing up to 5 results
|